This demonstration page uses our WeatherBlox Daily Observations layout. Learn more.

38.88101, -77.10428

Hourly Observations for August 20, 2018

Temp ( °F °C ) Dew Point ( °F °C ) Humidity (%) Winds ( mph kmh ) Pressure ( in mb ) Visibility ( mi km ) Precip ( " mm )
12:52 am 00:52 Cloudy 74 23.3 68 20 82 82 ENE 9 15 30.04 1017 10 16.0934 0 0
1:52 am 01:52 Cloudy 74 23.3 68 20 82 82 NE 8 13 30.05 1018 10 16.0934 0 0
2:07 am 02:07 Cloudy 74 23.3 68 20 82 82 ENE 7 11 30.06 1018 10 16.0934 0 0
2:33 am 02:33 Cloudy 74 23.3 68 20 82 82 ENE 9 15 30.06 1018 10 16.0934 0 0
2:40 am 02:40 Cloudy 74 23.3 68 20 82 82 NE 10 17 30.06 1018 10 16.0934 0 0
2:52 am 02:52 Cloudy 74 23.3 68 20 82 82 ENE 9 15 30.05 1018 10 16.0934 0 0
3:07 am 03:07 Cloudy 73 22.8 67 19.4 81 81 ENE 10 17 30.06 1018 10 16.0934 0 0
3:52 am 03:52 Cloudy 73 22.8 67 19.4 81 81 ENE 10 17 30.06 1018 10 16.0934 0 0
4:29 am 04:29 Cloudy 73 22.8 67 19.4 81 81 NNE 12 19 30.06 1018 10 16.0934 0 0
4:52 am 04:52 Cloudy 73 22.8 67 19.4 81 81 NNE 12 19 30.05 1018 10 16.0934 0 0
5:41 am 05:41 Cloudy 72 22.2 66 18.9 82 82 NE 9 15 30.06 1018 10 16.0934 0 0
5:52 am 05:52 Cloudy 72 22.2 66 18.9 82 82 NNE 9 15 30.07 1018 10 16.0934 0 0
6:10 am 06:10 Cloudy 72 22.2 66 18.9 82 82 NNE 12 19 30.06 1018 10 16.0934 0 0.0254
6:52 am 06:52 Cloudy 72 22.2 65 18.3 79 79 NNE 13 20 30.07 1018 10 16.0934 0 0.0254
7:52 am 07:52 Cloudy with Light Rain 72 22.2 65 18.3 79 79 NE 13 20 30.07 1018 10 16.0934 0 0.0254
8:52 am 08:52 Cloudy 73 22.8 65 18.3 76 76 NE 9 15 30.11 1020 10 16.0934 0 0.0254
9:52 am 09:52 Cloudy 74 23.3 66 18.9 76 76 NE 8 13 30.11 1020 10 16.0934 0 0
10:11 am 10:11 Cloudy 75 23.9 66 18.9 74 74 NE 10 17 30.12 1020 10 16.0934 0 0
10:52 am 10:52 Cloudy 75 23.9 67 19.4 76 76 ENE 6 9 30.11 1020 10 16.0934 0 0
11:52 am 11:52 Cloudy 76 24.4 67 19.4 74 74 ENE 9 15 30.1 1019 10 16.0934 0 0
12:52 pm 12:52 Cloudy 77 25 68 20 74 74 ENE 9 15 30.1 1019 10 16.0934 0 0
1:44 pm 13:44 Cloudy 78 25.6 68 20 71 71 NE 8 13 30.12 1020 10 16.0934 0 0
1:52 pm 13:52 Cloudy 78 25.6 68 20 71 71 NE 9 15 30.1 1019 10 16.0934 0 0
2:39 pm 14:39 Mostly Cloudy with Nearby Thunderstorms 79 26.1 68 20 69 69 NE 12 19 30.09 1019 10 16.0934 0 0
2:41 pm 14:41 Mostly Cloudy with Nearby Thunderstorms 79 26.1 68 20 69 69 NE 12 19 30.09 1019 10 16.0934 0 0
2:52 pm 14:52 Partly Cloudy with Nearby Thunderstorms 81 27.2 69 20.6 67 67 NE 10 17 30.08 1019 10 16.0934 0 0
2:54 pm 14:54 Partly Cloudy 81 27.2 69 20.6 67 67 NE 9 15 30.09 1019 10 16.0934 0 0
2:59 pm 14:59 Partly Cloudy 81 27.2 69 20.6 67 67 NE 10 17 30.09 1019 10 16.0934 0 0
3:05 pm 15:05 Partly Cloudy with Nearby Thunderstorms 82 27.8 69 20.6 65 65 NE 9 15 30.09 1019 10 16.0934 0 0
3:20 pm 15:20 Partly Cloudy 81 27.2 68 20 65 65 NE 10 17 30.09 1019 10 16.0934 0 0
3:32 pm 15:32 Mostly Cloudy with Nearby Thunderstorms 80 26.7 68 20 67 67 NE 9 15 30.09 1019 10 16.0934 0 0
3:52 pm 15:52 Mostly Cloudy 81 27.2 68 20 65 65 E 7 11 30.07 1018 10 16.0934 0 0
4:01 pm 16:01 Mostly Cloudy with Thunderstorms 80 26.7 68 20 67 67 NE 7 11 30.06 1018 10 16.0934 0 0
4:09 pm 16:09 Mostly Cloudy with Thunderstorms 80 26.7 68 20 67 67 NE 8 13 30.06 1018 10 16.0934 0 0
4:16 pm 16:16 Mostly Cloudy 80 26.7 68 20 67 67 E 8 13 30.06 1018 10 16.0934 0 0
4:18 pm 16:18 Cloudy 80 26.7 68 20 67 67 ENE 7 11 30.06 1018 10 16.0934 0 0
4:23 pm 16:23 Cloudy with Nearby Thunderstorms 80 26.7 68 20 67 67 ENE 7 11 30.06 1018 10 16.0934 0 0
4:39 pm 16:39 Cloudy 81 27.2 69 20.6 67 67 E 9 15 30.06 1018 10 16.0934 0 0
4:42 pm 16:42 Cloudy 81 27.2 69 20.6 67 67 E 8 13 30.06 1018 10 16.0934 0 0
4:52 pm 16:52 Mostly Cloudy 81 27.2 69 20.6 67 67 ENE 10 17 30.06 1018 10 16.0934 0 0
5:52 pm 17:52 Cloudy 80 26.7 69 20.6 69 69 E 10 17 30.07 1018 10 16.0934 0 0
6:52 pm 18:52 Mostly Cloudy 79 26.1 70 21.1 74 74 ENE 10 17 30.05 1018 10 16.0934 0 0
7:04 pm 19:04 Cloudy 79 26.1 69 20.6 72 72 E 14 22 30.06 1018 10 16.0934 0 0
7:52 pm 19:52 Cloudy 78 25.6 69 20.6 74 74 E 8 13 30.06 1018 10 16.0934 0 0
8:32 pm 20:32 Cloudy 77 25 69 20.6 77 77 ESE 9 15 30.09 1019 10 16.0934 0 0
9:24 pm 21:24 Cloudy 77 25 70 21.1 79 79 E 5 7 30.09 1019 10 16.0934 0 0
9:37 pm 21:37 Cloudy 77 25 70 21.1 79 79 E 8 13 30.09 1019 10 16.0934 0 0
9:41 pm 21:41 Cloudy 77 25 70 21.1 79 79 E 7 11 30.09 1019 10 16.0934 0 0
9:52 pm 21:52 Cloudy 77 25 69 20.6 77 77 E 8 13 30.1 1019 10 16.0934 0 0
10:36 pm 22:36 Cloudy 76 24.4 70 21.1 82 82 E 8 13 30.09 1019 10 16.0934 0 0
10:52 pm 22:52 Cloudy 76 24.4 70 21.1 82 82 E 9 15 30.1 1019 10 16.0934 0 0
11:06 pm 23:06 Cloudy 76 24.4 70 21.1 82 82 E 12 19 30.09 1019 10 16.0934 0 0
11:27 pm 23:27 Cloudy 76 24.4 69 20.6 79 79 ESE 10 17 30.09 1019 10 16.0934 0 0
11:38 pm 23:38 Cloudy 76 24.4 69 20.6 79 79 ESE 10 17 30.09 1019 10 16.0934 0 0
11:50 pm 23:50 Cloudy 75 24 70 21 83 83 ESE 9 15 30.09 1019 10 16.0934 0 0
11:52 pm 23:52 Cloudy 76 24.4 69 20.6 79 79 ESE 10 17 30.1 1019 10 16.0934 0 0

Powered by AerisWeather